weather.gov     
National Weather Service

Regional Weather Roundup
NWS Homepage
This page is being discontinued on March 12, 2014.
The same data is available at this site. Please update your bookmarks.
Thank you, and we apologize for the inconvenience.
Please send an email to SR-SRH.Webmaster@noaa.gov with any concerns.


Current Version
Previous Version:    01  02  03  04  05  06  07  08  09  10  11  12  13  14  15  16  17  18  19  20  21  22  23  24  25  26  27  28  29  30  
   31  32  33  34  35  36  37  38  39  40  41  42  43  44  45  46  47  48  49  50  51  52  53  54  55  56  57  58  59  60  
[Printable]
945
ASUS44 KOHX 280815
RWROHX
MIDDLE TENNESSEE HOURLY WEATHER ROUNDUP
NATIONAL WEATHER SERVICE NASHVILLE TN
300 AM CDT MON JUL 28 2014

NOTE: "FAIR" INDICATES FEW OR NO CLOUDS BELOW 12,000 FEET WITH
NO SIGNIFICANT WEATHER AND/OR OBSTRUCTIONS TO VISIBILITY.

* THESE REPORTS ARE NOT UNDER NWS QUALITY CONTROL AND MAY NOT
  REPORT WEATHER SUCH AS PRECIPITATION AND FOG.


TNZ005>011-023>034-057-059-062>066-078-080-280900
...NORTHERN MIDDLE TENNESSEE...

CITY           SKY/WX    TMP DP  RH WIND       PRES   REMARKS
CLARKSVILLE    CLEAR     71  58  63 NW6       29.96R
CROSSVILLE     LGT RAIN  69  65  86 CALM      29.99R
DICKSON        CLEAR     66  64  94 CALM      29.96S
LEBANON        PTCLDY    69  68  97 CALM      29.93R
NASHVILLE      CLEAR     72  66  81 NW3       29.95R
WEST NASHVILLE   N/A     70  70 100 NW5       29.95R
PORTLAND       CLEAR     68  61  77 N7        29.95R
SMYRNA         CLEAR     71  69  93 N6        29.95R
SPARTA         PTCLDY    70  70 100 CALM      29.95R
$$
TNZ056-058-060-061-075>077-079-093>097-280900
...SOUTHERN MIDDLE TENNESSEE...

CITY           SKY/WX    TMP DP  RH WIND       PRES   REMARKS
COLUMBIA       CLEAR     75  72  88 CALM      29.94S
FAYETTEVILLE   MOCLDY    77  70  78 N10       29.95R
LEWISBURG      PTCLDY    73  69  87 CALM      29.95R
MCMINNVILLE    CLEAR     73  73 100 CALM      29.95S
MURFREESBORO   MOCLDY    74  70  87 NW6       29.93
SHELBYVILLE    PTCLDY    75  70  83 NW3       29.95S
TULLAHOMA      PTCLDY    72  70  94 NW3       29.96F
WINCHESTER     MOCLDY    73  70  88 CALM      29.95S
$$


...KEY TO REMARKS...
VSB - VISIBILITY IN MILES
WCI - WIND CHILL INDEX
HX  - HEAT INDEX





U.S. Dept. of Commerce
NOAA National Weather Service
1325 East West Highway
Silver Spring, MD 20910
E-mail: w-nws.webmaster@noaa.gov
Page last modified: May 16, 2007
NATIONAL WEATHER SERVICE: for Safety, for Work, for Fun - FOR LIFE